Find Flock 4g-13

NORAD ID: 62621 Int'l Des: 2025-009 Owner: PLAN Country: US Constellation: planet operational
LEOCIRCULARRETROGRADESSO

实时位置

正在加载3D地球...

关于 Flock 4g-13

正在加载描述...

即将过境

Passes for default location (London). Set your location on the main map for personalized predictions.

高度历史

Loading altitude history...

两行轨道根数

1 62621U 25009N 26104.49738760 .00029893 00000-0 82418-3 0 9997
2 62621 97.3988 187.0106 0005814 179.5191 180.6060 15.37051869 69198
Epoch: Apr 14, 2026 • Age: 15 hours

当前状态

高度 471.8 km
速度 7.63 km/s
星下点 -50.12°S, 110.48°E
发射日期 Jan 14, 2025
运行时间 1.2 years
类型 earth observation

技术详情

分类 Payload
质量 5.70 kg
干质量 5.70 kg
总质量 5.70 kg
长度 0.30 m
直径 0.10 m
跨度 0.30 m
形状 Box+2 pan
制造商 PLAN
平台类型 Cubesat 3U
阶段状态 In Orbit
所有者/国家 PLAN/US

Most Searched